Wind_Speed
50 49 53 57 61 60 57 60 55 52 52 50 54 54 57 57 62 64 70 59 58 54 54 52 56 56 56 57 57 56 56 59 65 68 73 76 78 84
51 49 48 53 58 57 60 58 53 52 51 53 56 59 60 60 58 62 66 59 56 51 54 56 58 57 59 57 59 61 62 65 71 74 78 82 83 89
50 49 49 53 56 57 56 54 52 54 57 58 61 62 65 63 61 61 62 62 57 55 53 59 57 59 64 65 67 67 69 73 78 83 88 85 92 96
51 51 52 54 53 51 54 57 57 59 58 59 63 67 69 66 69 61 60 59 58 56 59 61 66 67 65 69 71 72 74 79 85 86 88 94 98 101
54 50 50 51 53 57 59 62 64 64 62 62 65 69 71 68 69 59 61 61 61 62 65 65 73 73 70 74 73 77 81 86 90 91 96 99 104 105
58 57 57 57 61 64 67 71 71 68 67 69 68 69 72 71 72 68 59 64 67 69 70 72 73 73 78 78 81 87 89 92 95 100 104 105 105 109
66 68 66 68 69 71 71 72 71 71 75 73 75 71 73 75 74 72 68 68 71 73 74 78 79 79 84 89 88 94 96 98 102 104 106 106 108 112
77 80 77 75 73 75 77 78 78 76 77 76 74 74 76 78 78 77 77 74 72 75 77 78 81 89 87 91 100 100 101 103 105 107 110 109 111 106
77 77 79 77 77 80 78 79 78 79 79 78 77 78 83 86 85 86 85 80 80 86 86 89 87 90 93 102 102 103 106 107 109 112 114 112 106 104
84 82 83 83 83 85 83 85 84 82 80 79 80 81 87 91 93 89 87 88 89 93 86 97 98 97 103 104 107 106 108 111 114 114 111 109 106 106
86 83 86 86 84 83 83 85 84 83 85 84 85 85 86 86 88 90 93 97 97 98 99 105 106 103 105 108 109 109 112 113 113 112 111 110 108 110
92 92 92 90 91 89 84 85 88 89 87 88 88 86 86 89 92 90 89 98 97 98 107 107 106 110 105 110 112 112 112 112 113 111 111 111 112 110
89 90 89 90 89 88 88 89 89 91 92 93 95 93 92 93 96 98 104 104 102 105 110 108 111 111 111 112 112 111 112 113 112 111 114 113 113 112
89 91 92 90 89 94 92 90 90 91 90 91 91 98 99 103 107 109 107 108 111 109 108 112 109 110 110 111 112 111 111 110 112 113 115 114 114 114
99 98 94 92 90 96 95 94 95 96 96 100 103 107 109 105 111 111 107 111 109 110 107 106 108 110 110 109 110 110 113 112 112 113 115 117 118 116
98 98 100 101 101 100 102 102 105 106 106 110 110 110 110 108 108 109 109 109 104 105 105 105 106 107 108 109 111 111 111 113 115 116 118 123 121 114
106 105 106 108 109 112 112 109 107 109 107 109 114 112 106 104 103 104 104 103 102 104 107 107 108 109 110 111 111 111 114 115 117 117 120 123 121 111
97 99 102 104 104 109 116 116 115 114 113 110 104 102 101 102 102 103 105 106 106 107 108 110 110 111 113 113 114 115 117 118 118 118 118 117 114 109
95 96 97 96 96 96 98 99 101 101 100 100 100 103 105 105 106 105 106 108 109 110 111 113 113 114 114 118 118 117 119 118 120 118 116 112 109 106
100 100 99 98 99 99 99 101 102 104 104 105 106 106 107 108 109 110 110 112 113 113 115 116 118 119 120 120 121 117 117 117 115 114 111 108 105 103
104 104 104 104 103 103 104 106 108 109 110 111 111 111 112 112 113 114 115 116 117 117 117 119 120 120 122 121 119 118 116 114 112 108 106 105 104 103
110 109 109 109 109 110 111 113 113 115 117 117 117 118 117 118 118 119 120 120 121 122 123 123 124 122 121 119 117 118 116 110 107 104 102 100 96 95
116 116 115 115 115 115 117 118 120 122 123 124 124 124 123 122 125 125 126 127 127 128 127 125 122 120 117 116 115 112 109 108 106 104 99 99 96 94
Wind_Direction
253 253 253 252 250 253 259 257 261 266 273 275 279 284 283 290 296 299 300 301 296 293 296 306 311 312 312 309 308 309 306 309 309 312 316 317 315 316
247 246 249 252 250 251 255 258 261 266 271 277 281 283 286 290 295 295 299 296 290 290 294 303 306 305 310 305 305 307 309 308 310 313 314 316 315 317
243 240 243 244 248 252 254 258 262 267 274 277 283 285 287 290 292 294 294 289 287 290 296 301 298 301 306 311 307 309 310 308 309 314 315 315 315 316
243 242 245 249 252 255 257 261 262 268 273 276 282 283 288 292 289 289 289 287 288 290 299 299 304 302 305 309 308 310 310 309 311 312 314 314 315 316
245 242 246 249 251 257 259 261 262 267 272 277 281 284 287 290 287 295 289 285 288 293 293 300 303 303 307 307 308 309 311 311 313 312 312 313 314 315
242 243 246 251 252 257 260 260 262 267 274 276 283 285 284 286 290 288 290 292 296 295 294 297 299 304 310 305 307 310 312 311 311 312 312 312 314 314
243 245 249 251 252 256 256 260 266 270 276 278 282 280 282 283 287 291 292 293 294 295 296 298 302 303 306 304 305 310 311 310 310 312 313 312 312 313
246 248 252 255 255 260 261 268 273 275 278 278 279 282 280 285 289 289 290 292 291 292 295 301 300 299 300 301 307 309 308 308 310 311 312 312 313 313
249 250 253 257 259 261 266 269 270 273 275 275 277 282 278 279 284 288 290 293 295 298 297 299 300 299 302 304 306 306 307 308 309 311 311 312 313 313
251 254 257 257 259 262 265 267 270 272 273 276 278 278 279 280 285 290 292 291 294 298 289 293 299 299 302 304 306 305 307 307 310 309 311 311 311 312
251 254 256 258 262 264 266 267 269 271 270 276 276 278 278 284 287 292 289 287 289 290 291 296 298 301 302 301 303 305 307 308 308 309 310 310 311 312
250 251 254 256 259 262 264 265 266 268 269 273 275 278 279 278 282 285 284 289 289 288 294 297 298 300 301 301 302 304 306 307 308 308 308 309 311 312
249 251 253 255 256 260 263 266 265 267 272 274 274 273 278 278 279 281 287 288 290 289 294 295 298 300 300 301 302 304 306 307 306 308 309 310 311 312
250 253 255 260 263 262 264 264 265 267 267 271 270 274 277 278 280 281 284 289 290 291 292 294 295 297 299 300 301 304 304 305 307 308 309 311 312 313
252 254 255 258 258 262 264 263 264 264 267 270 271 274 276 279 280 281 283 285 288 291 292 294 295 297 298 300 302 302 304 305 307 308 310 310 313 313
249 251 252 255 259 258 258 263 266 268 269 272 272 274 278 279 279 281 282 288 287 290 292 294 294 296 298 299 300 302 304 306 307 309 310 310 312 312
249 253 254 254 256 255 258 260 261 263 267 268 270 274 276 279 283 284 285 287 288 289 291 293 294 296 297 299 300 303 304 305 306 309 308 309 310 310
252 255 255 255 257 258 257 260 262 266 267 270 273 276 278 279 281 283 284 287 288 289 290 292 294 296 297 300 301 302 304 305 307 306 307 307 308 309
254 255 257 259 261 262 264 264 266 268 270 271 274 275 277 279 281 283 285 286 288 290 292 294 295 296 299 299 302 302 302 304 304 306 306 307 308 309
255 256 257 258 260 262 264 266 267 269 271 272 274 276 278 280 282 283 285 286 288 289 290 293 294 296 298 300 301 302 302 302 304 305 307 308 308 309
257 258 260 261 263 264 266 267 269 271 272 274 276 277 279 280 281 283 284 285 288 289 291 292 294 296 296 300 299 301 302 302 304 305 307 308 309 311
256 258 260 262 263 265 267 268 270 272 273 275 276 277 279 279 281 283 285 287 288 289 291 293 293 295 295 298 299 300 301 302 303 304 305 306 307 308
256 258 260 261 263 265 267 269 271 273 274 275 276 278 280 281 281 283 284 286 287 288 290 291 292 294 296 297 298 299 300 301 304 305 306 307 308 309
Height
10657 10660 10664 10667 10673 10675 10675 10678 10679 10680 10679 10680 10678 10675 10673 10671 10667 10664 10660 10657 10654 10649 10644 10638 10632 10626 10621 10615 10610 10603 10597 10591 10586 10580 10573 10564 10555 10547
10646 10648 10652 10656 10660 10662 10662 10665 10667 10668 10667 10668 10665 10663 10661 10658 10655 10652 10648 10645 10641 10636 10631 10626 10620 10615 10608 10602 10597 10590 10582 10576 10570 10564 10557 10548 10539 10530
10635 10637 10639 10644 10648 10651 10652 10653 10654 10655 10656 10654 10651 10649 10647 10646 10643 10639 10635 10632 10628 10623 10617 10612 10607 10602 10595 10589 10583 10576 10569 10561 10555 10548 10540 10529 10521 10512
10622 10626 10629 10633 10637 10639 10640 10639 10641 10643 10643 10642 10637 10634 10632 10632 10630 10628 10622 10617 10614 10609 10603 10598 10594 10588 10581 10575 10569 10561 10553 10546 10539 10531 10521 10513 10502 10491
10611 10613 10616 10621 10624 10625 10626 10626 10627 10630 10629 10627 10625 10620 10618 10617 10616 10615 10609 10605 10599 10593 10588 10584 10580 10573 10565 10558 10551 10545 10538 10529 10521 10512 10503 10493 10482 10470
10597 10601 10602 10606 10608 10609 10610 10610 10611 10613 10613 10614 10612 10609 10605 10602 10600 10598 10595 10589 10582 10577 10573 10569 10563 10555 10549 10541 10534 10527 10519 10510 10501 10492 10483 10473 10460 10447
10581 10584 10586 10589 10591 10592 10593 10592 10595 10596 10597 10596 10596 10595 10591 10588 10585 10581 10578 10573 10568 10562 10558 10553 10547 10537 10531 10525 10516 10509 10501 10489 10481 10472 10463 10453 10441 10426
10565 10567 10568 10570 10575 10575 10578 10578 10580 10581 10580 10579 10579 10578 10575 10572 10568 10565 10562 10559 10555 10547 10539 10531 10523 10519 10514 10507 10499 10490 10481 10471 10461 10451 10442 10431 10420 10404
10549 10551 10554 10556 10558 10558 10562 10561 10563 10562 10562 10561 10561 10560 10558 10553 10552 10547 10543 10539 10532 10525 10518 10510 10505 10501 10495 10488 10479 10471 10462 10451 10440 10430 10420 10409 10397 10384
10533 10536 10538 10539 10540 10541 10546 10543 10546 10546 10545 10544 10544 10540 10538 10533 10531 10526 10521 10517 10509 10502 10499 10496 10488 10483 10475 10467 10461 10451 10440 10429 10418 10407 10397 10386 10376 10363
10514 10517 10519 10521 10522 10525 10527 10527 10526 10526 10526 10525 10525 10522 10519 10513 10510 10508 10504 10500 10495 10489 10485 10481 10469 10463 10455 10447 10440 10430 10420 10408 10396 10385 10374 10364 10354 10342
10496 10497 10500 10504 10505 10506 10507 10507 10508 10507 10506 10504 10503 10501 10498 10496 10494 10492 10486 10484 10477 10471 10464 10458 10450 10443 10433 10425 10418 10409 10398 10386 10374 10363 10353 10341 10331 10320
10473 10475 10478 10483 10485 10485 10486 10486 10487 10487 10485 10483 10483 10481 10478 10478 10475 10471 10467 10462 10456 10451 10445 10438 10429 10421 10412 10403 10394 10387 10375 10365 10352 10340 10329 10317 10306 10295
10453 10454 10457 10460 10462 10462 10463 10464 10465 10464 10463 10461 10461 10460 10460 10458 10456 10452 10446 10440 10435 10428 10422 10416 10407 10400 10390 10382 10374 10366 10354 10344 10331 10316 10302 10290 10280 10269
10433 10436 10438 10440 10441 10440 10442 10444 10443 10442 10444 10444 10441 10441 10440 10438 10434 10430 10425 10417 10412 10406 10399 10393 10386 10378 10369 10360 10351 10343 10329 10319 10310 10295 10278 10264 10255 10241
10413 10416 10418 10418 10420 10422 10423 10420 10422 10423 10422 10421 10418 10417 10417 10415 10411 10406 10399 10394 10389 10383 10377 10371 10365 10357 10349 10341 10330 10320 10310 10294 10281 10271 10254 10235 10228 10220
10391 10392 10395 10394 10396 10399 10400 10399 10400 10401 10399 10398 10397 10394 10392 10390 10385 10378 10374 10371 10366 10361 10356 10350 10342 10335 10327 10318 10309 10302 10286 10274 10264 10253 10236 10214 10200 10196
10367 10367 10369 10370 10373 10375 10376 10376 10377 10378 10377 10375 10373 10371 10369 10365 10362 10358 10353 10350 10345 10339 10334 10326 10320 10311 10302 10295 10286 10276 10265 10251 10240 10229 10217 10202 10178 10169
10342 10342 10344 10347 10351 10351 10351 10352 10351 10350 10350 10349 10348 10346 10344 10341 10338 10334 10329 10324 10319 10315 10309 10302 10294 10286 10279 10269 10264 10254 10240 10232 10216 10204 10190 10175 10161 10147
10315 10320 10321 10324 10326 10328 10329 10327 10326 10325 10324 10323 10322 10323 10321 10318 10314 10309 10305 10300 10297 10293 10286 10279 10271 10262 10252 10244 10234 10231 10218 10204 10195 10182 10166 10150 10139 10126
10290 10294 10297 10301 10303 10304 10303 10301 10300 10299 10297 10297 10298 10297 10295 10293 10289 10285 10280 10276 10272 10268 10263 10255 10246 10238 10228 10221 10210 10199 10192 10181 10171 10160 10147 10133 10120 10101
10264 10269 10272 10275 10276 10277 10276 10274 10274 10272 10270 10270 10270 10269 10268 10266 10263 10259 10255 10251 10245 10241 10234 10230 10221 10215 10205 10197 10187 10173 10162 10154 10147 10139 10130 10119 10110 10096
10239 10242 10246 10249 10250 10249 10249 10250 10247 10244 10243 10241 10242 10240 10238 10237 10231 10230 10227 10222 10219 10215 10210 10205 10197 10189 10182 10173 10162 10152 10141 10129 10118 10104 10100 10091 10080 10070